Flag for U.S.A. Weather past 2 weeks in Grand Rapids, Michigan, U.S.A.

Now
5 °F

Passing clouds.


Feels Like: -10 °F
Forecast: 4 / 24 °F
Wind: 10 mph from Southwest

Location: Kent County International Airport

Current Time: Mar 6, 2015 at 7:39:40 AM

Latest Report: Mar 6, 2015 at 6:53 AM


Visibility: 8 mi

Pressure: 30.47 "Hg

Humidity: 80%

Dew point: 0 °F

Location of Grand RapidsLocation

Historic Weather in Grand Rapids — Graph

°F

Grand Rapids temperature yesterday

Maximum temperature yesterday: 17 °F (at 2:53 PM)
Minimum temperature yesterday: 2 °F (at 11:53 PM)
Average temperature yesterday: 10 °F

Past Weeks' High & Low Weather Summary

 TemperatureHumidityPressure
High33 °F (Mar 3, 4:53 PM)93% (Mar 3, 1:53 PM)30.77 "Hg (Mar 3, 1:53 PM)
Low-11 °F (Feb 20, 1:53 AM)34% (Feb 28, 4:53 PM)29.59 "Hg (Mar 3, 3:53 PM)
Average14 °F66%30.27 "Hg
* Reported Feb 19 5:53 AM — Mar 6 5:53 AM, Grand Rapids, Weather by CustomWeather, © 2015

Note: Actual official high and low records may vary slightly from our data, if they occured in-between our weather recording intervals... More about our weather records

Advertising

Grand Rapids weather history for previous 24 hours

 ConditionsComfort  
Time TempWeatherWind HumidityBarometerVisibility
5:53 AM
Fri, Mar 6
5 °FPassing clouds.9 mph80%30.48 "Hg10 mi
4:53 AM6 °FHaze.10 mph79%30.48 "Hg6 mi
3:53 AM8 °FOvercast.9 mph76%30.48 "Hg10 mi
2:53 AM5 °FPassing clouds.8 mph80%30.50 "Hg10 mi
1:53 AM3 °FPassing clouds.8 mph79%30.52 "Hg10 mi
12:53 AM1 °FClear.7 mph83%30.52 "Hg10 mi
11:53 PM
Thu, Mar 5
2 °FPassing clouds.7 mph76%30.54 "Hg10 mi
10:53 PM8 °FPassing clouds.5 mph69%30.55 "Hg10 mi
9:53 PM8 °FPassing clouds.6 mph72%30.55 "Hg10 mi
8:53 PM8 °FClear.7 mph69%30.54 "Hg10 mi
7:53 PM10 °FPassing clouds.9 mph67%30.53 "Hg10 mi
6:53 PM13 °FPassing clouds.10 mph64%30.52 "Hg10 mi
5:53 PM14 °FPartly sunny.13 mph61%30.50 "Hg10 mi
4:53 PM16 °FPartly sunny.13 mph56%30.49 "Hg10 mi
3:53 PM17 °FPartly sunny.12 mph49%30.47 "Hg10 mi
2:53 PM17 °FPartly sunny.8 mph49%30.45 "Hg10 mi
1:53 PM16 °FPartly sunny.12 mph49%30.46 "Hg10 mi
12:53 PM15 °FPartly sunny.No wind49%30.47 "Hg10 mi
11:53 AM12 °FPassing clouds.5 mph53%30.47 "Hg10 mi
10:53 AM12 °FPassing clouds.No wind48%30.47 "Hg10 mi
9:53 AM9 °FPassing clouds.3 mph55%30.48 "Hg10 mi
8:53 AM5 °FScattered clouds.6 mph66%30.45 "Hg10 mi
7:53 AM4 °FPartly sunny.5 mph73%30.42 "Hg10 mi
Weather by CustomWeather, © 2015

See weather overviewHow to use our weather pages